Weather in Faridabad

India     28°23′16″N   77°19′04″E
temp.,
°C
wind,
m/s
gust,
m/s
humid.,
%
clouds,
%
prec.,
mm/h
press.,
hPa
HPBL,
m
14 may, fri
fri1423:30+31ene353696 0.0 1004673
02:30+28ese35480 0.0 1002457
05:30+28e36532 0.0 1003359
08:30+28se485570 1.0 1004450
11:30+35ne13262 1.0 10041643
14:30+38n262110 0.0 10013173
17:30+33ssw682566 0.4 1000395
20:30+32sw242698 0.6 1002290
15 may, sat
sat1523:30+32wsw112549 0.6 100267
02:30+31nne11272 0.0 100130
05:30+30e23320 0.0 1003198
08:30+32se34295 0.0 1005506
11:30+37n11205 0.0 10041789
14:30+39nnw32172 0.0 10023142
17:30+39n33150 0.0 10003269
20:30+36nw582277 0.0 10031074
16 may, sun
sun1623:30+35nne242085 0.0 1003338
02:30+33nne382115 0.0 1003333
05:30+32nne3722100 0.0 1003304
08:30+35nne3418100 0.0 1006433
11:30+39n3214100 0.0 10041475
14:30+42nw231274 0.0 10023421
17:30+41wnw241248 0.0 10004064
20:30+40nw24120 0.0 1002574
17 may, mon
mon1723:30+38n5915100 0.0 1002668
02:30+36n261688 0.0 1002471
05:30+35n2617100 0.0 1003245
08:30+37wnw261692 0.0 1005473
11:30+37nw4616100 0.0 1004417
14:30+38wnw4416100 0.0 10031070
17:30+37sw3418100 0.0 1002501
20:30+36w1320100 0.0 1003160
18 may, tue
tue1823:30+35wnw3620100 0.0 1004330
02:30+34w3723100 0.0 1002356
05:30+32s4831100 0.0 1004409
08:30+31ssw5636100 0.0 1006799
11:30+32sw3438100 0.0 1006538
14:30+33w4432100 0.0 1005895
17:30+32w353299 0.0 1003350
20:30+32w363294 0.0 1005362